Regional Weather Roundup
Issued by NWS

Home | Current Version | Previous Version | Text Only | Print | Product List | Glossary On
Versions: 1 2 3 4 5 6 7 8 9 10 11 12 13 14 15 16 17 18 19 20 21 22 23 24 25 26 27 28 29 30 31 32 33 34 35 36 37 38 39 40 41 42 43 44 45 46 47 48 49 50
000
ASUS43 KLSX 220457
RWRMO

WEATHER SUMMARY FOR MISSOURI
NATIONAL WEATHER SERVICE SPRINGFIELD MO
1100 PM CST SUN JAN 21 2018

NOTE: "FAIR" INDICATES FEW OR NO CLOUDS BELOW 12,000 FEET WITH NO
       SIGNIFICANT WEATHER AND/OR OBSTRUCTIONS TO VISIBILITY.
       CURRENT SKY AND/OR WEATHER CONDITIONS ARE NOT AVAILABLE FOR
       CHILLICOTHE AND FARMINGTON.

MOZ001>031-035>038-043-044-053-054-220600-
...NORTHERN AND WESTERN MISSOURI...

CITY           SKY/WX    TMP DP  RH WIND       PRES   REMARKS
KANSAS CTY INT CLOUDY    51  49  92 S10       29.54F
LEE`S SUMMIT   CLOUDY    57  55  93 S13       29.55F
ST JOSEPH      CLOUDY    49  49 100 NE5       29.53F FOG
CHILLICOTHE      N/A     54  52  93 SE6       29.58F

$$
MOZ066>068-077>081-088>096-101>105-220600-
...SOUTHWEST MISSOURI...

CITY           SKY/WX    TMP DP  RH WIND       PRES   REMARKS
SPRINGFIELD    LGT RAIN  57  56  96 S12       29.62F
JOPLIN         CLOUDY    57  56  96 S10       29.60R

$$
MOZ032>034-039>042-045>050-055>058-069>072-220600-
...CENTRAL MISSOURI...

CITY           SKY/WX    TMP DP  RH WIND       PRES   REMARKS
COLUMBIA       NOT AVBL
JEFFERSON CITY HVY RAIN  58  55  90 SW6       29.70F FOG
ROLLA          LGT RAIN  58  56  93 S13       29.70F
SEDALIA        CLOUDY    59  58  96 SE13      29.59F
WARRENSBURG    CLOUDY    55  54  94 SE10      29.57F

$$
MOZ051-052-059>065-220600-
...EAST CENTRAL MISSOURI...

CITY           SKY/WX    TMP DP  RH WIND       PRES   REMARKS
ST LOUIS INTL  CLOUDY    57  55  93 SE9       29.77F

$$
MOZ072>076-082>087-097>100-106>115-220600-
...SOUTH CENTRAL AND SOUTHEAST MISSOURI...

CITY           SKY/WX    TMP DP  RH WIND       PRES   REMARKS
CAPE GIRARDEAU MOCLDY    54  48  80 SE10      29.85F
POPLAR BLUFF   FAIR      57  53  86 S14       29.82F
WEST PLAINS    CLOUDY    60  55  83 S16G25    29.73F

$$



USA.gov is the U.S. government's official web portal to all federal, state and local government web resources and services.